Total_Precipitation_Accumulation
1.50 1.54 1.18 0.73 0.51 0.40 0.33 0.28 0.24 0.24 0.24 0.25 0.24 0.19 0.18 0.21 0.21 0.23 0.25 0.29 0.29 0.25 0.25 0.29 0.36 0.40 0.38 0.34 0.30 0.28 0.27 0.29 0.31 0.34 0.37 0.40 0.42 0.45 0.48 0.50 0.51 0.53 0.54 0.53
1.58 1.13 0.48 0.33 0.42 0.57 0.55 0.46 0.32 0.28 0.24 0.29 0.27 0.22 0.19 0.21 0.22 0.23 0.25 0.29 0.32 0.31 0.30 0.30 0.36 0.43 0.46 0.40 0.34 0.31 0.28 0.28 0.30 0.33 0.37 0.39 0.43 0.46 0.47 0.48 0.49 0.49 0.51 0.55
0.94 0.59 0.35 0.47 0.59 0.74 0.71 0.53 0.41 0.38 0.34 0.39 0.36 0.31 0.21 0.19 0.20 0.22 0.24 0.28 0.32 0.32 0.34 0.34 0.37 0.41 0.45 0.50 0.42 0.35 0.32 0.33 0.35 0.37 0.40 0.42 0.46 0.45 0.46 0.46 0.47 0.45 0.47 0.51
0.82 0.44 0.43 0.58 0.61 0.61 0.63 0.41 0.43 0.54 0.66 0.73 0.54 0.51 0.25 0.18 0.18 0.21 0.22 0.25 0.30 0.31 0.31 0.33 0.36 0.40 0.42 0.45 0.48 0.42 0.37 0.36 0.37 0.39 0.42 0.44 0.45 0.45 0.46 0.48 0.48 0.49 0.49 0.50
1.07 0.51 0.48 0.56 0.44 0.45 0.47 0.41 0.53 0.73 0.98 1.06 0.70 0.58 0.30 0.16 0.18 0.20 0.23 0.23 0.25 0.27 0.28 0.30 0.33 0.36 0.38 0.41 0.44 0.46 0.43 0.38 0.36 0.39 0.44 0.49 0.51 0.47 0.45 0.46 0.47 0.47 0.47 0.49
0.90 0.55 0.51 0.41 0.35 0.50 0.63 0.81 1.04 1.32 1.82 1.92 0.78 0.52 0.38 0.21 0.19 0.17 0.21 0.23 0.22 0.24 0.26 0.29 0.32 0.35 0.35 0.37 0.40 0.43 0.48 0.46 0.40 0.38 0.40 0.45 0.51 0.52 0.51 0.48 0.49 0.50 0.49 0.48
1.39 0.92 0.68 0.50 0.65 0.86 1.13 1.56 2.38 2.83 2.85 1.64 0.43 0.40 0.40 0.27 0.19 0.16 0.17 0.22 0.24 0.24 0.25 0.27 0.28 0.31 0.34 0.34 0.37 0.39 0.42 0.50 0.51 0.47 0.44 0.41 0.43 0.49 0.52 0.51 0.50 0.50 0.48 0.46
1.37 1.15 0.76 0.58 0.61 0.79 0.85 1.11 1.56 1.64 1.14 0.54 0.29 0.35 0.34 0.27 0.20 0.17 0.17 0.20 0.23 0.26 0.29 0.29 0.30 0.31 0.35 0.36 0.35 0.36 0.36 0.39 0.45 0.46 0.45 0.45 0.45 0.47 0.49 0.50 0.53 0.54 0.52 0.51
0.93 0.75 0.45 0.40 0.36 0.51 0.81 0.96 0.79 1.03 0.82 0.52 0.42 0.32 0.29 0.23 0.20 0.19 0.18 0.19 0.21 0.23 0.27 0.30 0.33 0.35 0.37 0.39 0.39 0.38 0.39 0.37 0.37 0.38 0.40 0.44 0.46 0.47 0.48 0.50 0.52 0.53 0.53 0.51
0.92 0.84 0.45 0.38 0.59 0.74 0.74 0.88 1.23 1.80 1.75 0.97 0.47 0.27 0.29 0.25 0.23 0.21 0.22 0.20 0.20 0.20 0.22 0.25 0.29 0.35 0.38 0.40 0.42 0.39 0.39 0.39 0.37 0.38 0.38 0.41 0.44 0.44 0.46 0.49 0.53 0.53 0.51 0.50
0.97 1.07 0.75 0.66 0.82 0.80 0.85 1.11 1.41 1.72 1.49 0.94 0.59 0.38 0.28 0.22 0.21 0.22 0.23 0.22 0.19 0.19 0.19 0.23 0.27 0.32 0.36 0.37 0.41 0.42 0.41 0.42 0.40 0.40 0.40 0.40 0.39 0.37 0.37 0.39 0.41 0.42 0.43 0.45
0.89 1.28 1.07 0.70 0.51 0.49 0.76 0.84 1.05 1.57 1.45 0.82 0.62 0.45 0.27 0.20 0.21 0.21 0.23 0.24 0.22 0.21 0.21 0.22 0.25 0.28 0.35 0.36 0.36 0.38 0.38 0.38 0.37 0.35 0.34 0.32 0.31 0.31 0.31 0.31 0.31 0.32 0.34 0.36
1.15 1.63 1.80 1.56 1.15 0.82 0.91 0.79 0.83 1.08 1.26 1.12 0.92 0.55 0.27 0.20 0.21 0.20 0.20 0.22 0.23 0.22 0.23 0.21 0.23 0.25 0.30 0.33 0.32 0.32 0.33 0.32 0.31 0.31 0.30 0.29 0.28 0.27 0.26 0.24 0.24 0.24 0.25 0.26
1.49 1.74 1.36 1.16 0.78 0.65 0.69 0.58 0.61 1.08 1.62 1.25 0.66 0.39 0.27 0.21 0.21 0.22 0.20 0.19 0.21 0.22 0.23 0.24 0.23 0.25 0.25 0.27 0.27 0.28 0.29 0.28 0.27 0.27 0.27 0.27 0.27 0.26 0.25 0.24 0.24 0.25 0.26 0.26
1.90 2.05 1.09 0.57 0.39 0.42 0.53 0.50 0.54 0.82 0.91 0.92 0.49 0.26 0.21 0.19 0.20 0.19 0.17 0.16 0.16 0.18 0.20 0.23 0.22 0.25 0.24 0.25 0.28 0.27 0.26 0.25 0.25 0.24 0.24 0.24 0.23 0.24 0.23 0.23 0.24 0.25 0.28 0.29
2.03 2.08 1.18 0.70 0.38 0.41 0.57 0.47 0.45 0.53 0.55 0.52 0.35 0.25 0.18 0.17 0.18 0.17 0.15 0.14 0.14 0.16 0.17 0.20 0.21 0.23 0.24 0.24 0.25 0.26 0.26 0.26 0.25 0.24 0.24 0.22 0.22 0.21 0.21 0.21 0.22 0.23 0.26 0.27
2.35 2.45 2.14 1.42 0.55 0.96 1.26 0.48 0.32 0.34 0.31 0.32 0.31 0.24 0.17 0.16 0.14 0.15 0.16 0.15 0.15 0.17 0.17 0.18 0.20 0.23 0.24 0.25 0.24 0.23 0.24 0.25 0.25 0.24 0.24 0.22 0.20 0.20 0.19 0.19 0.19 0.21 0.22 0.24
2.17 2.49 2.96 2.50 1.79 2.35 0.96 0.17 0.15 0.21 0.21 0.19 0.20 0.18 0.16 0.16 0.16 0.15 0.16 0.15 0.15 0.16 0.18 0.18 0.20 0.24 0.26 0.26 0.26 0.25 0.24 0.24 0.24 0.25 0.26 0.24 0.20 0.19 0.19 0.20 0.21 0.21 0.20 0.22
1.35 1.97 3.30 3.54 2.92 1.64 0.31 0.08 0.12 0.15 0.18 0.19 0.17 0.15 0.14 0.14 0.14 0.14 0.13 0.14 0.15 0.16 0.17 0.19 0.20 0.23 0.25 0.26 0.25 0.24 0.23 0.23 0.23 0.23 0.25 0.24 0.21 0.21 0.21 0.22 0.23 0.22 0.21 0.23
1.18 1.67 3.09 3.77 3.38 1.65 0.24 0.05 0.07 0.15 0.22 0.15 0.14 0.13 0.13 0.12 0.13 0.11 0.09 0.09 0.10 0.12 0.13 0.14 0.16 0.18 0.19 0.21 0.23 0.23 0.24 0.24 0.24 0.24 0.25 0.25 0.24 0.24 0.23 0.22 0.22 0.22 0.24 0.26
1.54 2.42 3.19 3.01 2.55 1.06 0.13 0.04 0.07 0.24 0.24 0.12 0.11 0.11 0.11 0.11 0.10 0.09 0.08 0.08 0.08 0.08 0.10 0.11 0.12 0.13 0.16 0.17 0.18 0.21 0.23 0.25 0.25 0.23 0.23 0.23 0.24 0.25 0.26 0.25 0.25 0.27 0.30 0.33
0.82 1.50 1.89 1.84 2.10 1.11 0.15 0.07 0.15 0.22 0.12 0.10 0.09 0.10 0.11 0.11 0.10 0.10 0.10 0.10 0.10 0.10 0.11 0.11 0.12 0.13 0.14 0.15 0.16 0.18 0.21 0.24 0.24 0.23 0.23 0.22 0.23 0.25 0.27 0.28 0.32 0.36 0.39 0.44
0.44 0.61 0.73 0.85 0.93 0.43 0.15 0.15 0.17 0.14 0.12 0.10 0.10 0.09 0.09 0.09 0.10 0.10 0.11 0.11 0.11 0.11 0.11 0.12 0.12 0.12 0.12 0.13 0.14 0.16 0.18 0.20 0.23 0.26 0.27 0.27 0.27 0.29 0.32 0.36 0.42 0.48 0.51 0.53
0.37 0.40 0.57 0.67 0.58 0.39 0.27 0.22 0.19 0.15 0.12 0.09 0.10 0.10 0.09 0.10 0.10 0.10 0.11 0.11 0.11 0.11 0.12 0.13 0.13 0.13 0.14 0.14 0.14 0.17 0.19 0.20 0.22 0.25 0.28 0.32 0.34 0.37 0.40 0.42 0.46 0.50 0.54 0.56
0.42 0.48 0.63 0.68 0.51 0.42 0.37 0.29 0.24 0.19 0.14 0.12 0.10 0.09 0.10 0.10 0.10 0.10 0.11 0.11 0.12 0.13 0.13 0.13 0.13 0.15 0.17 0.18 0.17 0.18 0.19 0.20 0.23 0.26 0.28 0.31 0.34 0.37 0.41 0.44 0.48 0.49 0.52 0.55
0.32 0.37 0.48 0.52 0.40 0.38 0.31 0.25 0.23 0.20 0.17 0.14 0.11 0.10 0.09 0.10 0.11 0.11 0.11 0.12 0.13 0.14 0.15 0.14 0.14 0.15 0.17 0.18 0.19 0.20 0.20 0.21 0.24 0.26 0.28 0.31 0.33 0.36 0.38 0.39 0.46 0.51 0.50 0.53